Regional Weather Roundup
Issued by NWS

Home | Current Version | Previous Version | Graphics & Text | Print | Product List | Glossary On
Versions: 1 2 3 4 5 6 7 8 9 10 11 12 13 14 15 16 17 18 19 20 21 22 23 24 25 26 27
000
ASUS45 KBOU 160710
RWRCO

WEATHER ROUNDUP FOR COLORADO
NATIONAL WEATHER SERVICE DENVER/BOULDER CO
1200 AM MST TUE JAN 16 2018

NOTE: "FAIR" INDICATES FEW OR NO CLOUDS BELOW 12000 FEET WITH NO
SIGNIFICANT WEATHER AND/OR OBSTRUCTIONS TO VISIBILITY.

COZ001>005-013-030-031-160800-
...NORTHWEST COLORADO...

CITY           SKY/WX    TMP DP  RH WIND       PRES   REMARKS
CRAIG          FAIR       5  -1  76 E5        30.46S WCI  -4
HAYDEN         FAIR       8   0  69 E9        30.45S WCI  -5
MEEKER         FAIR      16   9  74 E7        30.42F WCI   6
RABBIT EARS PA FAIR       7   3  85 CALM      30.30F
STEAMBOAT SPGS FAIR       4  -1  78 CALM      30.43S
WALDEN         FAIR      -6 -13  71 SE8       30.41F WCI -21
$$

COZ006>008-011-160800-
...WEST CENTRAL VALLEYS...

CITY           SKY/WX    TMP DP  RH WIND       PRES   REMARKS
GRAND JUNCTION FAIR      29  17  61 VRB3      30.38S
MONTROSE       FAIR      22  17  81 S8        30.39R WCI  12
EAGLE          FAIR      14   8  77 E5        30.44R WCI   6
RIFLE          FAIR      23  18  81 CALM      30.41S
DELTA          FAIR      28  19  69 CALM      30.38S
NUCLA          FAIR      32  19  59 CALM      30.37R
$$

COZ017>023-064>068-160800-
...SOUTHWEST COLORADO...

CITY           SKY/WX    TMP DP  RH WIND       PRES   REMARKS
DURANGO        FAIR      22  18  85 CALM      30.26S
CORTEZ         FAIR      24  18  77 CALM      30.27S
PAGOSA SPRINGS FAIR      20  18  91 CALM      30.27S
TELLURIDE      FAIR      21  14  74 SE6       30.31S WCI  13
WOLF CREEK PAS FAIR      18 -18  19 NW5       30.35R WCI  11
$$

COZ009-010-012-014-032>034-037-058>063-160800-
...CENTRAL COLORADO...

CITY           SKY/WX    TMP DP  RH WIND       PRES   REMARKS
ASPEN          FAIR      13   8  81 S3        30.34S
BUENA VISTA    CLOUDY    15  10  77 SE5       30.36S WCI   8
COPPER MTN     NOT AVBL
BERTHOUD PASS  FAIR       0 -13  55 NW17G25   30.22S WCI -21
COTTONWOOD PAS NOT AVBL
GUNNISON       FAIR      15   9  76 CALM      30.33R
KREMMLING      NOT AVBL
LEADVILLE      FAIR       5  -1  76 NE10      30.29S WCI -10
MONARCH PASS   FAIR      12   1  62 W14       30.36F WCI  -3
SALIDA         CLOUDY    18  11  74 CALM      30.46F
SUNLIGHT       FAIR      12   9  85 N3        30.35F
WILKERSON PASS FAIR       9 -13  37 N14G22    30.26F WCI  -8
$$

COZ069>075-160800-
...SAN LUIS VALLEY/SANGRE DE CRISTO MOUNTAINS...

CITY           SKY/WX    TMP DP  RH WIND       PRES   REMARKS
ALAMOSA        FAIR      11   7  84 E5        30.30S WCI   3
DEL NORTE      FAIR      14   8  76 CALM      30.31S
LA VETA PASS   MOCLDY    16  14  93 S15         N/A  WCI   1
SAGUACHE       FAIR      19  12  73 N5        30.31S WCI  13
$$

COZ035-036-038>040-160800-
...NORTHERN COLORADO FRONT RANGE...

CITY           SKY/WX    TMP DP  RH WIND       PRES   REMARKS
DENVER INTL AP FAIR      -3 -10  72 SE10      30.50F WCI -20
DMNS CITY PARK NOT AVBL
AURORA         CLEAR      2  -4  74 SE8       30.49F WCI -11
FRONT RANGE AP FAIR       1  -7  70 S6        30.51F WCI -10
ERIE MUNI ARPT FAIR       0  -4  80 CALM      30.59F
BOULDER MUN AP FAIR       9  -2  61 CALM      30.51F
CENTENNIAL     FAIR       4  -2  76 S5        30.47S WCI  -5
BROOMFIELD     FAIR       9  -4  56 SE3       30.49F
FORT COLLINS   FAIR       0  -6  76 S9        30.53F WCI -15
LONGMONT       FAIR       5  -3  69 CALM      30.56F
$$

COZ041-046-047-076>085-087-088-160800-
...PIKES PEAK/PALMER DIVIDE AND SOUTHERN FOOTHILLS...

CITY           SKY/WX    TMP DP  RH WIND       PRES   REMARKS
COLO. SPRINGS  CLOUDY    13   7  77 S5        30.47S WCI   5
A. F. ACADEMY  CLOUDY    11   7  83 CALM      30.43S
SCHRIEVER AFB  SNOWSHWR   9   5  85 W8        30.46F WCI  -4
CHEYENNE MTN   LGT SNOW  10   9  92 CALM      30.35S
ELLICOTT         N/A    N/A N/A N/A NW5         N/A
FALCON         LGT SNOW   7   5  91 W8        30.42F WCI  -6
FORT CARSON    CLOUDY    11   8  86 SE7       30.46S WCI   1
LIMON          FAIR      -2  -8  76 W10       30.51F WCI -19
MONUMENT HILL  FAIR       1   0  92 SW8       30.41S WCI -12
CANON CITY     CLOUDY    19  16  86 NE6       30.50F WCI  11
WALSENBURG     CLOUDY     9   5  85 CALM      30.46F
TRINIDAD       FAIR      12   9  87 CALM      30.48F
$$

COZ042>045-048>051-090-091-160800-
...NORTHEAST COLORADO...

CITY           SKY/WX    TMP DP  RH WIND       PRES   REMARKS
GREELEY ARPT   FAIR       0  -5  79 SW5       30.57F WCI -10
AKRON          FAIR      -4  -8  83 W8        30.56S WCI -19
BURLINGTON     FAIR      -4  -8  83 NW7       30.60S WCI -18
WRAY           FAIR      -2  -8  78 W5        30.65F WCI -12
YUMA           FAIR      -9 -15  77 W5        30.61S WCI -21
STERLING       FAIR      -4  -6  92 W5        30.61S WCI -15
HOLYOKE        FAIR       1  -6  71 NW6       30.64S WCI -10
FORT MORGAN    FAIR      -2  -9  70 CALM      30.59S
$$

COZ086-089-092>099-160800-
...SOUTHEAST COLORADO...

CITY           SKY/WX    TMP DP  RH WIND       PRES   REMARKS
PUEBLO         FAIR      14   3  61 CALM      30.55F
LA JUNTA       FAIR       9  -2  61 SE6       30.59F WCI  -1
LAMAR          FAIR      -4 -10  75 CALM      30.64S
SPRINGFIELD      N/A      4  -2  76 NW6       30.58F WCI  -7
$$




USA.gov is the U.S. government's official web portal to all federal, state and local government web resources and services.